1397088033738,19.8128
1397088093738,19.8738
1397088153738,19.9000
1397088213738,19.9262
1397088273738,19.7931
1397088333738,19.8395
1397088393738,19.8806
1397088453738,19.7531
1397088513738,19.8417
1397088573738,19.7696
1397088633738,19.6990
1397088693738,19.6922
1397088753738,19.7449
1397088813738,19.7195
1397088873738,19.6761
1397088933738,19.7431
1397088993738,19.7065
1397089053738,19.6753
1397089113738,19.5744
1397089173738,19.6237
1397089233738,19.6361
1397089293738,19.5620
1397089353738,19.6605
1397089413738,19.5562
1397089473738,19.5419
1397089533738,19.5495
1397089593738,19.5525
1397089653738,19.5370
1397089713738,19.5601
1397089773738,19.4887
1397089833738,19.5476
1397089893738,19.5628
1397089953738,19.5663
1397090013738,19.6057
1397090073738,19.5854
1397090133738,19.5584
1397090193738,19.5875
1397090253738,19.5518
1397090313738,19.6033
1397090373738,19.5581
1397090433738,19.5805
1397090493738,19.5834
1397090553738,19.4552
1397090613738,19.5806
1397090673738,19.4985
1397090733738,19.5603
1397090793738,19.6296
1397090853738,19.5993
1397090913738,19.5755
1397090973738,19.6082
1397091033738,19.5307
1397091093738,19.5119
1397091153738,19.6191
1397091213738,19.5573
1397091273738,19.5599
1397091333738,19.5998
1397091393738,19.5482
1397091453738,19.5237
1397091513738,19.4613
1397091573738,19.5196
1397091633749,19.4651
1397091693749,19.4887
1397091753749,19.5106
1397091813749,19.4917
1397091873749,19.4557
1397091933749,19.5057
1397091993749,19.4625
1397092053749,19.4865
1397092113749,19.4332
1397092173749,19.4901
1397092233749,19.5042
1397092293749,19.4680
1397092353749,19.4952
1397092413749,19.5288
1397092473749,19.5109
1397092533749,19.4833
1397092593749,19.4739
1397092653749,19.4607
1397092713749,19.4505
1397092773749,19.4814
1397092833749,19.4081
1397092893749,19.3919
1397092953749,19.4681
1397093013749,19.4314
1397093073749,19.3448
1397093133749,19.5497
1397093193749,19.4440
1397093253749,19.4612
1397093313749,19.3895
1397093373749,19.4333
1397093433749,19.3316
1397093493749,19.4255
1397093553749,19.4516
1397093613749,19.4218
1397093673749,19.4954
1397093733749,19.4826
1397093793749,19.5482
1397093853749,19.5466
1397093913749,19.5869
1397093973749,19.5598
1397094033749,19.6322
1397094093749,19.6538
1397094153749,19.6380
1397094213749,19.6325
1397094273749,19.6377
1397094333749,19.6249
1397094393749,19.6019
1397094453749,19.5892
1397094513749,19.5753
1397094573749,19.5110
1397094633749,19.6273
1397094693749,19.6477
1397094753749,19.6806
1397094813749,19.6300
1397094873749,19.6094
1397094933749,19.4791
1397094993749,19.5848
1397095053749,19.5195
1397095113749,19.5626
1397095173749,19.4624
1397095233760,19.4701
1397095293760,19.5384
1397095353760,19.4221
1397095413760,19.4272
1397095473760,19.4272
1397095533760,19.4066
1397095593760,19.3545
1397095653760,19.3639
1397095713760,19.3661
1397095773760,19.4384
1397095833760,19.4194
1397095893760,19.3989
1397095953760,19.3906
1397096013760,19.4347
1397096073760,19.5226
1397096133760,19.3906
1397096193760,19.4352
1397096253760,19.4471
1397096313760,19.4223
1397096373760,19.4313
1397096433760,19.3806
1397096493760,19.4731
1397096553760,19.3992
1397096613760,19.4652
1397096673760,19.4133
1397096733760,19.4388
1397096793760,19.4471
1397096853760,19.4051
1397096913760,19.4171
1397096973760,19.4101
1397097033760,19.4065
1397097093760,19.3829
1397097153760,19.3806
1397097213760,19.3983
1397097273760,19.3757
1397097333760,19.3676
1397097393760,19.3783
1397097453760,19.3715
1397097513760,19.4222
1397097573760,19.3880
1397097633760,19.3829
1397097693760,19.4531
1397097753760,19.4117
1397097813760,19.3803
1397097873760,19.4019
1397097933760,19.4306
1397097993760,19.3997
1397098053760,19.4216
1397098113760,19.4340
1397098173760,19.4920
1397098233760,19.3563
1397098293760,19.4296
1397098353760,19.4354
1397098413760,19.3719
1397098473760,19.3372
1397098533760,19.4194
1397098593760,19.3702
1397098653760,19.4109
1397098713760,19.4012
1397098773760,19.3432
1397098833770,19.3555
1397098893770,19.4069
1397098953770,19.4732
1397099013770,19.4030
1397099073770,19.4177
1397099133770,19.5848
1397099193770,19.6715
1397099253770,19.7214
1397099313770,19.6244
1397099373770,19.5546
1397099433770,19.5073
1397099493770,19.4492
1397099553770,19.5009
1397099613770,19.4847
1397099673770,19.5421
1397099733770,19.5727
1397099793770,19.4711
1397099853770,19.4579
1397099913770,19.4084
1397099973770,19.3699
1397100033770,19.4248
1397100093770,19.4043
1397100153770,19.4252
1397100213770,19.4277
1397100273770,19.4657
1397100333770,19.6012
1397100393770,19.4321
1397100453770,19.4171
1397100513770,19.3397
1397100573770,19.4376
1397100633770,19.3593
1397100693770,19.4599
1397100753770,19.4436
1397100813770,19.3701
1397100873770,19.4973
1397100933770,19.3325
1397100993770,19.4419
1397101053770,19.3873
1397101113770,19.4357
1397101173770,19.4141
1397101233770,19.3905
1397101293770,19.4141
1397101353770,19.4134
1397101413770,19.4153
1397101473770,19.4419
1397101533770,19.4365
1397101593770,19.3669
1397101653770,19.4179
1397101713770,19.3896
1397101773770,19.4133
1397101833770,19.3651
1397101893770,19.4144
1397101953770,19.4716
1397102013770,19.3611
1397102073770,19.3827
1397102133770,19.4118
1397102193770,19.4973
1397102253770,19.4361
1397102313770,19.4235
1397102373770,19.3010
1397102433781,19.3537
1397102493781,19.4172
1397102553781,19.4600
1397102613781,19.3919
1397102673781,19.4340
1397102733781,19.3787
1397102793781,19.3985
1397102853781,19.4108
1397102913781,19.4292
1397102973781,19.3922
1397103033781,19.4707
1397103093781,19.4605
1397103153781,19.4153
1397103213781,19.4465
1397103273781,19.4740
1397103333781,19.4295
1397103393780,19.4931
1397103453780,19.4186
1397103513780,19.5045
1397103573780,19.4170
1397103633781,19.4279
1397103693781,19.4522
1397103753781,19.3871
1397103813781,19.3693
1397103873781,19.4560
1397103933781,19.3771
1397103993781,19.3388
1397104053781,19.4042
1397104113781,19.4032
1397104173781,19.4177
1397104233781,19.3606
1397104293781,19.3607
1397104353781,19.3653
1397104413781,19.3423
1397104473781,19.3060
1397104533781,19.3533
1397104593781,19.4003
1397104653781,19.3854
1397104713780,19.3688
1397104773780,19.3781
1397104833780,19.4004
1397104893780,19.4274
1397104953780,19.3071
1397105013781,19.3250
1397105073781,19.4499
1397105133781,19.3524
1397105193781,19.3901
1397105253781,19.3846
1397105313781,19.3220
1397105373781,19.3343
1397105433781,19.3971
1397105493781,19.2931
1397105553781,19.3641
1397105613781,19.3450
1397105673781,19.3335
1397105733781,19.3579
1397105793781,19.2813
1397105853781,19.3288
1397105913781,19.3447
1397105973781,19.3148
1397106033791,19.3683
1397106093791,19.4171
1397106153791,19.1956
1397106213791,19.2681
1397106273791,19.2696
1397106333791,19.2634
1397106393791,19.2267
1397106453791,19.2467
1397106513791,19.3043
1397106573791,19.2615
1397106633791,19.2730
1397106693791,19.2503
1397106753791,19.3004
1397106813791,19.2842
1397106873791,19.2911
1397106933791,19.2423
1397106993791,19.3863
1397107053791,19.3058
1397107113791,19.2869
1397107173791,19.3712
1397107233791,19.3300
1397107293791,19.3530
1397107353791,19.3012
1397107413791,19.3173
1397107473791,19.3066
1397107533791,19.3643
1397107593791,19.2881
1397107653791,19.3251
1397107713791,19.2982
1397107773791,19.3419
1397107833791,19.3101
1397107893791,19.2217
1397107953791,19.2838
1397108013791,19.2687
1397108073791,19.2251
1397108133791,19.2508
1397108193791,19.2653
1397108253791,19.2519
1397108313791,19.2201
1397108373791,19.2121
1397108433791,19.2549
1397108493791,19.2692
1397108553791,19.2599
1397108613791,19.2450
1397108673791,19.2698
1397108733791,19.2663
1397108793791,19.2587
1397108853791,19.3281
1397108913791,19.2517
1397108973791,19.2987
1397109033791,19.3284
1397109093791,19.3020
1397109153791,19.3000
1397109213791,19.3704
1397109273791,19.3170
1397109333791,19.2848
1397109393791,19.3058
1397109453791,19.3359
1397109513791,19.3311
1397109573791,19.3156
1397109633801,19.3053
1397109693801,19.3315
1397109753801,19.2184
1397109813801,19.2842
1397109873801,19.2566
1397109933801,19.2793
1397109993801,19.3079
1397110053801,19.3557
1397110113801,19.2936
1397110173801,19.2669
1397110233801,19.2505
1397110293801,19.2206
1397110353801,19.3583
1397110413801,19.3717
1397110473801,19.3521
1397110533801,19.2761
1397110593801,19.2727
1397110653801,19.3510
1397110713801,19.2856
1397110773801,19.2848
1397110833801,19.2666
1397110893801,19.2731
1397110953801,19.3564
1397111013801,19.2974
1397111073801,19.2439
1397111133801,19.2890
1397111193801,19.3036
1397111253801,19.2907
1397111313801,19.4209
1397111373801,19.3417
1397111433801,19.3723
1397111493801,19.3477
1397111553801,19.3052
1397111613801,19.4138
1397111673801,19.3379
1397111733801,19.2964
1397111793801,19.3094
1397111853801,19.2627
1397111913801,19.2417
1397111973801,19.3701
1397112033801,19.2438
1397112093801,19.3294
1397112153801,19.2588
1397112213801,19.3874
1397112273801,19.3422
1397112333801,19.3015
1397112393801,19.3894
1397112453801,19.3642
1397112513801,19.3675
1397112573801,19.3117
1397112633801,19.3262
1397112693801,19.3230
1397112753801,19.3080
1397112813801,19.3900
1397112873801,19.4039
1397112933801,19.3947
1397112993801,19.3776
1397113053801,19.3857
1397113113801,19.3741
1397113173801,19.3477
1397113233811,19.3456
1397113293811,19.3716
1397113353811,19.3482
1397113413811,19.3347
1397113473811,19.3745
1397113533811,19.3932
1397113593811,19.3747
1397113653811,19.4190
1397113713811,19.3978
1397113773811,19.3562
1397113833811,19.3753
1397113893811,19.3366
1397113953811,19.3790
1397114013811,19.3214
1397114073811,19.3042
1397114133811,19.3759
1397114193811,19.3031
1397114253811,19.3787
1397114313811,19.3384
1397114373811,19.2720
1397114433811,19.2729
1397114493811,19.3002
1397114553811,19.3291
1397114613811,19.3066
1397114673811,19.3675
1397114733811,19.3002
1397114793811,19.3240
1397114853811,19.2812
1397114913811,19.2604
1397114973811,19.3129
1397115033811,19.3806
1397115093811,19.4094
1397115153811,19.2804
1397115213811,19.2502
1397115273811,19.3989
1397115333811,19.2878
1397115393811,19.3519
1397115453811,19.3280
1397115513811,19.3199
1397115573811,19.3933
1397115633811,19.3718
1397115693811,19.2953
1397115753811,19.3133
1397115813811,19.3194
1397115873811,19.3315
1397115933811,19.3892
1397115993811,19.3833
1397116053811,19.4366
1397116113811,19.4948
1397116173811,19.4129
1397116233811,19.3743
1397116293811,19.3178
1397116353811,19.3650
1397116413811,19.3728
1397116473811,19.4064
1397116533811,19.4070
1397116593811,19.4216
1397116653811,19.4092
1397116713811,19.3825
1397116773811,19.3893
1397116833822,19.4237
1397116893822,19.3941
1397116953822,19.3511
1397117013822,19.3499
1397117073822,19.3887
1397117133822,19.3608
1397117193822,19.3870
1397117253822,19.3002
1397117313822,19.2493
1397117373822,19.3460
1397117433822,19.3342
1397117493822,19.2831
1397117553822,19.3188
1397117613822,19.3622
1397117673822,19.4144
1397117733822,19.4064
1397117793822,19.3748
1397117853822,19.3949
1397117913822,19.3964
1397117973822,19.3217
1397118033822,19.2913
1397118093822,19.3568
1397118153822,19.4166
1397118213822,19.4931
1397118273822,19.3819
1397118333822,19.3976
1397118393822,19.3996
1397118453822,19.3715
1397118513822,19.3590
1397118573822,19.3688
1397118633822,19.3772
1397118693822,19.2832
1397118753822,19.3359
1397118813822,19.4142
1397118873822,19.3792
1397118933822,19.2946
1397118993822,19.2855
1397119053822,19.3382
1397119113822,19.3477
1397119173822,19.2712
1397119233822,19.3030
1397119293822,19.3113
1397119353822,19.2798
1397119413822,19.3171
1397119473822,19.3001
1397119533822,19.3151
1397119593822,19.3544
1397119653822,19.2559
1397119713822,19.3427
1397119773822,19.2978
1397119833822,19.3401
1397119893822,19.3435
1397119953822,19.3881
1397120013822,19.4412
1397120073822,19.4234
1397120133822,19.3640
1397120193822,19.3381
1397120253822,19.3417
1397120313822,19.3455
1397120373822,19.2911
1397120433832,19.2641
1397120493832,19.3186
1397120553832,19.2858
1397120613832,19.3199
1397120673832,19.2751
1397120733832,19.2998
1397120793832,19.3415
1397120853832,19.3431
1397120913832,19.3116
1397120973832,19.2684
1397121033832,19.3016
1397121093832,19.2945
1397121153832,19.3461
1397121213832,19.3079
1397121273832,19.3450
1397121333832,19.2338
1397121393832,19.2481
1397121453832,19.2690
1397121513832,19.2764
1397121573832,19.2830
1397121633832,19.2799
1397121693832,19.3528
1397121753832,19.2873
1397121813832,19.2837
1397121873832,19.3573
1397121933832,19.3359
1397121993832,19.3301
1397122053832,19.2912
1397122113832,19.2414
1397122173832,19.2990
1397122233832,19.2430
1397122293832,19.2936
1397122353832,19.3494
1397122413832,19.3290
1397122473832,19.4145
1397122533832,19.3777
1397122593832,19.3654
1397122653832,19.3777
1397122713832,19.3462
1397122773832,19.3066
1397122833832,19.3556
1397122893832,19.2859
1397122953832,19.3143
1397123013832,19.3423
1397123073832,19.3345
1397123133832,19.3011
1397123193832,19.3190
1397123253832,19.2882
1397123313832,19.2827
1397123373832,19.2697
1397123433832,19.2603
1397123493832,19.2685
1397123553832,19.3251
1397123613832,19.2709
1397123673832,19.2546
1397123733832,19.2543
1397123793832,19.3040
1397123853832,19.3068
1397123913832,19.3217
1397123973832,19.2763
1397124033842,19.3331
1397124093842,19.3825
1397124153842,19.2353
1397124213842,19.2927
1397124273842,19.2612
1397124333842,19.2705
1397124393842,19.3053
1397124453842,19.3949
1397124513842,19.3059
1397124573842,19.3029
1397124633842,19.2887
1397124693842,19.2680
1397124753842,19.3604
1397124813842,19.3274
1397124873842,19.2463
1397124933842,19.3175
1397124993842,19.2838
1397125053842,19.2648
1397125113842,19.2884
1397125173842,19.2906
1397125233842,19.2975
1397125293842,19.3455
1397125353842,19.2909
1397125413842,19.2756
1397125473842,19.3619
1397125533842,19.3083
1397125593842,19.3103
1397125653842,19.3412
1397125713842,19.3984
1397125773842,19.3680
1397125833842,19.3784
1397125893842,19.3081
1397125953842,19.2860
1397126013842,19.3978
1397126073842,19.3122
1397126133842,19.3329
1397126193842,19.3676
1397126253842,19.3508
1397126313842,19.3460
1397126373842,19.3979
1397126433842,19.3242
1397126493842,19.3296
1397126553842,19.3406
1397126613842,19.4037
1397126673842,19.3472
1397126733842,19.3461
1397126793842,19.4356
1397126853842,19.3741
1397126913842,19.3206
1397126973842,19.3068
1397127033842,19.2996
1397127093842,19.3047
1397127153842,19.3515
1397127213842,19.2542
1397127273842,19.3393
1397127333842,19.3474
1397127393842,19.3331
1397127453842,19.3695
1397127513842,19.3305
1397127573842,19.3022
1397127633852,19.3244
1397127693852,19.3162
1397127753852,19.3227
1397127813852,19.3029
1397127873852,19.3026
1397127933852,19.2980
1397127993852,19.3963
1397128053852,19.3360
1397128113852,19.3189
1397128173852,19.3137
1397128233852,19.3535
1397128293852,19.1305
1397128833852,19.2029
1397128893852,19.0903
1397128953852,19.2717
1397129013852,19.2666
1397129073852,19.3041
1397129133852,19.2303
1397129193852,19.3434
1397129253852,19.3810
1397129313852,19.3535
1397129373852,19.3692
1397129433852,19.2793
1397129493852,19.1854
1397129553852,19.3161
1397129613852,19.3208
1397129673852,19.3276
1397129733852,19.2753
1397129793852,19.2662
1397129853852,19.2929
1397129913852,19.3185
1397129973852,19.3978
1397130033852,19.3810
1397130093852,19.4275
1397130153852,19.3954
1397130213852,19.3241
1397130273852,19.3696
1397130333852,19.3982
1397130393852,19.2980
1397130453852,19.3643
1397130513852,19.4244
1397130573852,19.3571
1397130633852,19.3615
1397130693852,19.2946
1397130753852,19.3141
1397130813852,19.2782
1397130873852,19.3231
1397130933852,19.3063
1397130993852,19.3419
1397131053852,19.3024
1397131113852,19.3651
1397131173852,19.3657
1397131233862,19.3369
1397131293862,19.3653
1397131353862,19.3598
1397131413862,19.2934
1397131473862,19.3649
1397131533862,19.3846
1397131593862,19.3713
1397131653862,19.3454
1397131713862,19.2954
1397131773862,19.3457
1397131833862,19.3176
1397131893862,19.4161
1397131953862,19.2896
1397132013862,19.3312
1397132073862,19.3935
1397132133862,19.3727
1397132193862,19.3328
1397132253862,19.3672
1397132313862,19.3466
1397132373862,19.3703
1397132433862,19.2571
1397132493862,19.3016
1397132553862,19.3955
1397132613862,19.2979
1397132673862,19.3340
1397132733862,19.3455
1397132793862,19.3206
1397132853862,19.3660
1397132913862,19.3629
1397132973862,19.3457
1397133033862,19.3340
1397133093862,19.2981
1397133153862,19.3090
1397133213862,19.3400
1397133273862,19.2682
1397133333862,19.3285
1397133393862,19.3193
1397133453862,19.3590
1397133513862,19.2989
1397133573862,19.3137
1397133633862,19.4029
1397133693862,19.3085
1397133753862,19.3736
1397133813862,19.3747
1397133873862,19.3716
1397133933862,19.3924
1397133993862,19.3831
1397134053862,19.3198
1397134113862,19.3971
1397134173862,19.3804
1397134233862,19.3662
1397134293862,19.3487
1397134353862,19.3458
1397134413862,19.3355
1397134473862,19.3721
1397134533862,19.4141
1397134593862,19.3442
1397134653862,19.3302
1397134713862,19.3329
1397134773862,19.3190
1397134833872,19.3797
1397134893872,19.3885
1397134953872,19.2132
1397135013872,19.2360
1397135073872,19.3533
1397135133872,19.2995
1397135193872,19.2519
1397135253872,19.3208
1397135313872,19.3444
1397135373872,19.2579
1397135433872,19.2920
1397135493872,19.3243
1397135553872,19.2608
1397135613872,19.3254
1397135673872,19.3611
1397135733872,19.3330
1397135793872,19.5219
1397135853872,19.3873
1397135913872,19.2620
1397135973872,19.3321
1397136033872,19.2878
1397136093872,19.3015
1397136153872,19.3129
1397136213872,19.3801
1397136273872,19.3706
1397136333872,19.3351
1397136393872,19.3088
1397136453872,19.3454
1397136513872,19.3581
1397136573872,19.3298
1397136633872,19.3397
1397136693872,19.3064
1397136753872,19.3306
1397136813872,19.4050
1397136873872,19.3912
1397136933872,19.4134
1397136993872,19.3698
1397137053872,19.4608
1397137113872,19.4026
1397137173872,19.4532
1397137233872,19.4011
1397137293872,19.3478
1397137353872,19.3474
1397137413872,19.4070
1397137473872,19.3101
1397137533872,19.3247
1397137593872,19.3863
1397137653872,19.3183
1397137713872,19.3729
1397137773872,19.3991
1397137833872,19.4192
1397137893872,19.3290
1397137953872,19.3892
1397138013872,19.5146
1397138073872,19.3357
1397138133872,19.4435
1397138193872,19.4064
1397138253872,19.3691
1397138313872,19.3723
1397138373872,19.3755
1397138433882,19.3968
1397138493882,19.3306
1397138553882,19.3837
1397138613882,19.3452
1397138673882,19.3498
1397138733882,19.3007
1397138793882,19.3365
1397138853882,19.3680
1397138913882,19.2961
1397138973882,19.3625
1397139033882,19.2661
1397139093882,19.3487
1397139153882,19.3424
1397139213882,19.3116
1397139273882,19.3445
1397139333882,19.3044
1397139393882,19.2604
1397139453882,19.3180
1397139513882,19.3394
1397139573882,19.3523
1397139633882,19.2998
1397139693882,19.2676
1397139753882,19.3205
1397139813882,19.3139
1397139873882,19.3084
1397139933882,19.3331
1397139993882,19.3313
1397140053882,19.2712
1397140113882,19.2290
1397140173882,19.3053
1397140233882,19.3064
1397140293882,19.2767
1397140353882,19.3315
1397140413882,19.3906
1397140473882,19.3136
1397140533882,19.3962
1397140593882,19.3436
1397140653882,19.3621
1397140713882,19.3239
1397140773882,19.3369
1397140833882,19.3783
1397140893882,19.3465
1397140953882,19.3375
1397141013882,19.4389
1397141073882,19.3878
1397141133882,19.4226
1397141193882,19.3720
1397141253882,19.4290
1397141313882,19.3117
1397141373882,19.3890
1397141433882,19.4606
1397141493882,19.3777
1397141553882,19.4117
1397141613882,19.4013
1397141673882,19.4041
1397141733882,19.4291
1397141793882,19.3989
1397141853882,19.4269
1397141913882,19.4479
1397141973882,19.3889
1397142033892,19.3723
1397142093892,19.4000
1397142153892,19.3647
1397142213892,19.4415
1397142273892,19.4561
1397142333892,19.4670
1397142393892,19.4891
1397142453892,19.5104
1397142513892,19.3870
1397142573892,19.4550
1397142633892,19.3610
1397142693892,19.4228
1397142753892,19.3259
1397142813892,19.3310
1397142873892,19.3156
1397142933892,19.3408
1397142993892,19.3609
1397143053892,19.3184
1397143113892,19.3678
1397143173892,19.3078
1397143233892,19.3600
1397143293892,19.3407
1397143353892,19.3341
1397143413892,19.3077
1397143473892,19.3427
1397143533892,19.2210
1397143593892,19.3031
1397143653892,19.3407
1397143713892,19.2810
1397143773892,19.2768
1397143833892,19.3131
1397143893892,19.3223
1397143953892,19.3027
1397144013892,19.2734
1397144073892,19.3612
1397144133892,19.3230
1397144193892,19.3367
1397144253892,19.3182
1397144313892,19.2909
1397144373892,19.2949
1397144433892,19.3451
1397144493892,19.3624
1397144553892,19.3304
1397144613892,19.3081
1397144673892,19.2903
1397144733892,19.2651
1397144793892,19.3174
1397144853892,19.3031
1397144913892,19.2890
1397144973892,19.3949
1397145033892,19.3759
1397145093892,19.3297
1397145153892,19.3994
1397145213892,19.3065
1397145273892,19.2457
1397145333892,19.3024
1397145393892,19.3408
1397145453892,19.2661
1397145513892,19.2860
1397145573892,19.3079
1397145633902,19.3309
1397145693902,19.2856
1397145753902,19.2508
1397145813902,19.3235
1397145873902,19.2682
1397145933902,19.2602
1397145993902,19.2486
1397146053902,19.2485
1397146113902,19.2117
1397146173902,19.3255
1397146233902,19.2337
1397146293902,19.2102
1397146353902,19.2906
1397146413902,19.3179
1397146473902,19.2598
1397146533902,19.2111
1397146593902,19.2301
1397146653902,19.2366
1397146713902,19.3075
1397146773902,19.2556
1397146833902,19.2286
1397146893902,19.2683
1397146953902,19.2267
1397147013902,19.2478
1397147073902,19.2014
1397147133902,19.2045
1397147193902,19.2183
1397147253902,19.2800
1397147313902,19.3121
1397147373902,19.2671
1397147433902,19.2915
1397147493902,19.2841
1397147553902,19.3076
1397147613902,19.2935
1397147673902,19.2283
1397147733902,19.2643
1397147793902,19.2553
1397147853902,19.3526
1397147913902,19.3567
1397147973902,19.3004
1397148033902,19.2951
1397148093902,19.2816
1397148153902,19.3653
1397148213902,19.2559
1397148273902,19.3300
1397148333902,19.2502
1397148393902,19.2709
1397148453902,19.2894
1397148513902,19.2754
1397148573902,19.2735
1397148633902,19.3054
1397148693902,19.3102
1397148753902,19.2876
1397148813902,19.2476
1397148873902,19.3109
1397148933902,19.2529
1397148993902,19.3662
1397149053902,19.3229
1397149113902,19.3000
1397149173902,19.2330
1397149233911,19.4007
1397149293911,19.3558
1397149353911,19.2599
1397149413911,19.3156
1397149473911,19.3063
1397149533911,19.3171
1397149593911,19.3488
1397149653911,19.3126
1397149713911,19.3018
1397149773911,19.3492
1397149833911,19.3357
1397149893911,19.3390
1397149953911,19.3941
1397150013911,19.3637
1397150073911,19.3580
1397150133911,19.3278
1397150193911,19.2931
1397150253911,19.3634
1397150313911,19.4052
1397150373911,19.3998
1397150433911,19.3868
1397150493911,19.3913
1397150553911,19.3806
1397150613911,19.3551
1397150673911,19.3772
1397150733911,19.3867
1397150793911,19.3817
1397150853911,19.2457
1397150913911,19.3043
1397150973911,19.3690
1397151033911,19.3371
1397151093911,19.3101
1397151153911,19.4714
1397151213911,19.3536
1397151273911,19.3847
1397151333911,19.3970
1397151393911,19.3586
1397151453911,19.3606
1397151513911,19.3680
1397151573911,19.4139
1397151633911,19.4016
1397151693911,19.4381
1397151753911,19.3240
1397151813911,19.3521
1397151873911,19.3577
1397151933911,19.4153
1397151993911,19.2765
1397152053911,19.3812
1397152113911,19.4113
1397152173911,19.4346
1397152233911,19.3895
1397152293911,19.3368
1397152353911,19.3478
1397152413911,19.2439
1397152473911,19.3672
1397152533911,19.3331
1397152593911,19.3840
1397152653911,19.4038
1397152713911,19.3219
1397152773911,19.3824
1397152833921,19.3630
1397152893921,19.4000
1397152953921,19.4310
1397153013921,19.3744
1397153073921,19.4458
1397153133921,19.3474
1397153193921,19.3384
1397153253921,19.3762
1397153313921,19.3775
1397153373921,19.3602
1397153433921,19.3562
1397153493921,19.3305
1397153553921,19.3560
1397153613921,19.4106
1397153673921,19.4761
1397153733921,19.3543
1397153793921,19.3416
1397153853921,19.3514